Flag for Germany Weather past 2 weeks in Sondershausen, Thuringia, Germany

Now
58 °F

Low clouds.


Feels Like: 58 °F
Forecast: 48 / 62 °F
Wind: 3 mph from Northwest

Location: Erfurt-Bindersleben

Current Time: Aug 31, 2014 at 8:37:20 AM

Latest Report: Aug 31, 2014 at 8:00 AM


Visibility: 25 mi

Pressure: 29.94 "Hg

Humidity: 97%

Dew point: 57 °F

Location of SondershausenLocation

Historic Weather in Sondershausen — Graph

°F

Sondershausen temperature yesterday

Maximum temperature yesterday: 68 °F (at 5:00 PM)
Minimum temperature yesterday: 57 °F (at 7:00 AM)
Average temperature yesterday: 62 °F

Past Weeks' High & Low Weather Summary

 TemperatureHumidityPressure
High71 °F (Aug 29, 5:00 PM)98% (Aug 27, 2:00 AM)30.10 "Hg (Aug 27, 2:00 AM)
Low42 °F (Aug 21, 6:00 AM)36% (Aug 22, 3:00 PM)29.70 "Hg (Aug 26, 10:00 AM)
Average57 °F74%29.95 "Hg
* Reported Aug 16 7:00 AM — Aug 31 7:00 AM, Sondershausen, Weather by CustomWeather, © 2014

Note: Actual official high and low records may vary slightly from our data, if they occured in-between our weather recording intervals... More about our weather records

Advertising

Sondershausen weather history for previous 24 hours

 ConditionsComfort  
Time TempWeatherWind HumidityBarometerVisibility
7:00 AM
Aug 31
57 °FLight rain. Low clouds.3 mph97%29.93 "Hg19 mi
6:00 AM57 °FRain. Low clouds.3 mph98%29.93 "Hg7 mi
5:00 AM57 °FRain. Low clouds.6 mph97%29.94 "Hg2 mi
4:00 AM58 °FLight rain. Overcast.5 mph95%29.96 "Hg12 mi
3:00 AM58 °FLight rain. Overcast.5 mph92%29.97 "Hg19 mi
2:00 AM59 °FLight rain. Overcast.5 mph90%29.99 "Hg22 mi
1:00 AM60 °FOvercast.3 mph84%29.99 "Hg28 mi
12:00 AM60 °FOvercast.3 mph84%30.00 "Hg28 mi
11:00 PM
Aug 30
61 °FOvercast.5 mph81%30.01 "Hg25 mi
10:00 PM62 °FLight rain. Overcast.5 mph79%30.02 "Hg22 mi
9:00 PM62 °FLight rain. Overcast.3 mph76%30.01 "Hg25 mi
8:00 PM64 °FPartly sunny.5 mph71%30.01 "Hg31 mi
7:00 PM65 °FOvercast.3 mph67%30.01 "Hg37 mi
6:00 PM66 °FOvercast.6 mph63%30.01 "Hg47 mi
5:00 PM68 °FPartly sunny.6 mph58%30.01 "Hg31 mi
4:00 PM68 °FPartly sunny.7 mph59%30.01 "Hg43 mi
3:00 PM67 °FPartly sunny.8 mph57%30.03 "Hg43 mi
2:00 PM65 °FPartly sunny.7 mph62%30.04 "Hg47 mi
1:00 PM65 °FOvercast.8 mph63%30.05 "Hg43 mi
12:00 PM64 °FOvercast.6 mph64%30.06 "Hg37 mi
11:00 AM65 °FPartly sunny.6 mph61%30.05 "Hg37 mi
10:00 AM64 °FPartly sunny.5 mph73%30.05 "Hg25 mi
9:00 AM60 °FScattered clouds.5 mph85%30.05 "Hg22 mi
8:00 AM57 °FScattered clouds.2 mph94%30.06 "Hg22 mi
Weather by CustomWeather, © 2014

See weather overviewHow to use our weather pages